Rochester, NY

4:31 AM EST on February 28, 2017 (GMT -0500)
Greater Rochester International

Weather History for KROC - February, 2013

Change the Weather History Date:

Monday, February 4, 2013

  Actual Average Record
Temperature  
Mean Temperature 20 °F 25 °F  
Max Temperature 23 °F 32 °F 58 °F (1991)
Min Temperature 16 °F 17 °F -8 °F (1970)
Degree Days  
Heating Degree Days 45 40  
Month to date heating degree days 182 161  
Since 1 July heating degree days 3427 3865  
Cooling Degree Days 0 0  
Month to date cooling degree days 0 0  
Year to date cooling degree days 0 0  
Moisture  
Dew Point 9 °F    
Average Humidity 61    
Maximum Humidity 74    
Minimum Humidity 47    
Precipitation  
Precipitation T in 0.06 in 1.03 in (1901)
Month to date precipitation 0.05 0.27  
Year to date precipitation 1.52 2.68  
Snow  
Snow T in 0.80 in 10.30 in (1901)
Month to date snowfall 1.8 3.3  
Since 1 July snowfall 36.9 60.7  
Snow Depth T in    
Sea Level Pressure  
Sea Level Pressure 29.94 in    
Wind  
Wind Speed 12 mph (WSW)    
Max Wind Speed 23 mph    
Max Gust Speed 28 mph    
Visibility 10 miles    
Events Snow    
T = Trace of Precipitation, MM = Missing Value Source: NWS Daily Summary

Daily Weather History Graph

Daily Weather History Graph

Search for Another Location

Airport or City:

Trip Planner

Search our weather history database for the weather conditions in past years. The results will help you decide how hot, cold, wet, or windy it might be!

Date:

Astronomy

Feb. 04, 2013 Rise Set
Actual Time 7:22 AM EST 5:27 PM EST
Civil Twilight 6:52 AM EST 5:57 PM EST
Nautical Twilight 6:18 AM EST 6:31 PM EST
Astronomical Twilight 5:45 AM EST 7:04 PM EST
Moon 1:57 AM EST (2/4) 11:47 AM EST (2/4)
Length of Visible Light 11h 04m
Length of Day
10h 05m
Last Quarter, 37% of the Moon is Illuminated
Feb 4
Last Quarter
Feb 10
New
Feb 17
First Quarter
Feb 25
Full
Mar 4
Last Quarter

Hourly Weather History & Observations

Time (EST) Temp. Windchill Dew Point Humidity Pressure Visibility Wind Dir Wind Speed Gust Speed Precip Events Conditions
12:54 AM 19.0 °F 7.5 °F 10.0 °F 68% 29.87 in 10.0 mi WSW 10.4 mph - N/A   Overcast
1:54 AM 19.0 °F 6.1 °F 10.0 °F 68% 29.88 in 10.0 mi WSW 12.7 mph - N/A   Overcast
2:54 AM 19.0 °F 5.6 °F 10.9 °F 71% 29.89 in 9.0 mi WSW 13.8 mph - 0.00 in Snow Light Snow
3:54 AM 19.0 °F 5.6 °F 10.9 °F 71% 29.89 in 9.0 mi West 13.8 mph 24.2 mph 0.00 in Snow Light Snow
5:54 AM 17.1 °F 3.0 °F 9.0 °F 71% 29.93 in 9.0 mi West 13.8 mph - 0.00 in   Scattered Clouds
6:54 AM 16.0 °F 2.9 °F 8.1 °F 71% 29.94 in 10.0 mi West 11.5 mph - N/A   Mostly Cloudy
7:54 AM 17.1 °F 3.0 °F 8.1 °F 68% 29.96 in 10.0 mi WSW 13.8 mph - N/A   Mostly Cloudy
8:54 AM 19.0 °F 5.0 °F 8.1 °F 62% 29.97 in 10.0 mi West 15.0 mph 21.9 mph N/A   Overcast
9:54 AM 19.0 °F 4.5 °F 9.0 °F 65% 29.96 in 10.0 mi West 16.1 mph 25.3 mph N/A   Mostly Cloudy
10:54 AM 19.9 °F 5.7 °F 8.1 °F 60% 29.97 in 10.0 mi West 16.1 mph 23.0 mph N/A   Overcast
11:54 AM 21.9 °F 6.9 °F 8.1 °F 55% 29.96 in 10.0 mi West 19.6 mph 26.5 mph N/A   Overcast
12:54 PM 21.9 °F 10.4 °F 5.0 °F 48% 29.94 in 10.0 mi West 11.5 mph - N/A   Overcast
1:54 PM 21.9 °F 7.8 °F 6.1 °F 51% 29.93 in 10.0 mi WSW 17.3 mph 23.0 mph N/A   Overcast
2:54 PM 21.9 °F 10.4 °F 7.0 °F 53% 29.94 in 10.0 mi West 11.5 mph - N/A   Overcast
3:54 PM 21.0 °F 9.3 °F 7.0 °F 55% 29.94 in 10.0 mi West 11.5 mph - N/A   Mostly Cloudy
4:54 PM 19.9 °F 9.3 °F 9.0 °F 62% 29.94 in 10.0 mi WSW 9.2 mph - N/A   Mostly Cloudy
5:54 PM 19.9 °F 7.9 °F 9.0 °F 62% 29.93 in 10.0 mi WSW 11.5 mph - N/A   Mostly Cloudy
6:54 PM 19.9 °F 8.6 °F 10.0 °F 65% 29.94 in 10.0 mi SW 10.4 mph - N/A   Overcast
7:54 PM 19.9 °F 10.1 °F 10.9 °F 68% 29.95 in 10.0 mi SW 8.1 mph - N/A   Overcast
8:54 PM 19.9 °F 11.1 °F 12.0 °F 71% 29.94 in 10.0 mi SW 6.9 mph - N/A   Overcast
9:54 PM 19.9 °F 11.1 °F 12.0 °F 71% 29.95 in 10.0 mi SW 6.9 mph - N/A   Overcast
10:54 PM 19.9 °F - 12.9 °F 74% 29.95 in 10.0 mi Calm Calm - N/A   Overcast
11:54 PM 19.9 °F - 12.9 °F 74% 29.96 in 10.0 mi Calm Calm - N/A   Overcast